Regional Weather Roundup
Issued by NWS

Home | Current Version | Previous Version | Graphics & Text | Print | Product List | Glossary On
Versions: 1 2 3 4 5 6 7 8 9 10 11 12 13 14 15 16 17 18 19 20 21 22 23 24 25 26 27 28 29 30 31 32 33 34 35 36 37 38 39 40 41 42 43 44 45 46 47 48 49 50
000
ASUS45 KSLC 261610
RWRUT

UTAH REGIONAL WEATHER ROUNDUP
NATIONAL WEATHER SERVICE SALT LAKE CITY UT
1000 AM MDT TUE MAY 26 2015

UTZ001>011-023>025-261700-

NORTHERN UTAH

CITY           SKY/WX    TMP DP  RH WIND       PRES   REMARKS
BRIGHAM CITY   CLOUDY    57  50  78 S10       30.05R
DUGWAY         PTSUNNY   57  52  82 SW2       30.06
HILL AFB       NOT AVBL
LOGAN          CLOUDY    53  48  83 NW3       30.04R
OGDEN          LGT RAIN  52  51  97 E6        30.06S FOG
PROVO AIRPORT  LGT RAIN  54  48  82 SE9       30.09R
SALT LAKE CITY CLOUDY    61  48  62 S9        30.03S
VERNAL         PTSUNNY   56  44  64 SE5       30.08S
WENDOVER       PTSUNNY   59  46  63 CALM      30.03R
HEBER CITY     DRIZZLE   48  43  81 CALM      30.10S
WEST JORDAN    CLOUDY    59  48  67 SE14G23   30.05S

$$

UTZ012>022-026-027-261700-

SOUTHERN/CENTRAL UTAH

CITY           SKY/WX    TMP DP  RH WIND       PRES   REMARKS
BLANDING       SUNNY     56  46  69 S5        30.22R
BRYCE CANYON   CLOUDY    47  40  76 NW13      30.20S
CEDAR CITY     CLOUDY    56  45  66 SE6       30.10S
DELTA          CLOUDY    57  44  61 S13       30.07F
HANKSVILLE     CLOUDY    64  45  48 CALM      30.07S
MILFORD        PTSUNNY   56  49  77 SW14      30.07F
MOAB/CYNLANDS  SUNNY     62  43  49 E8        30.04S
PRICE            N/A     58  41  53 SE5       30.09R
ST GEORGE      PTSUNNY   72  45  37 N5        30.03S
KANAB          MOSUNNY   61  45  55 CALM      30.13S

$$

REGIONAL REPORTS     COLORADO/ARIZONA

CITY           SKY/WX    TMP DP  RH WIND       PRES   REMARKS
CRAIG, CO      PTSUNNY   54  44  69 CALM      30.12S
GRAND JUNCTION MOSUNNY   61  45  55 SE8       30.07S
RIFLE          SUNNY     54  45  71 VRB3      30.12F
MONTROSE       MOSUNNY   59  43  55 N6        30.12F
CORTEZ         MOSUNNY   58  43  57 NW3       30.15S
PAGE, AZ       SUNNY     68  42  38 NE3       30.06S
GRAND CANYON   SUNNY     59  37  44 S8        30.18S
KINGMAN        SUNNY     75  31  19 MISG      30.02S
FLAGSTAFF      SUNNY     58  38  47 S9        30.20S

$$

REGIONAL REPORTS    NEVADA/IDAHO/WYOMING

CITY           SKY/WX    TMP DP  RH WIND       PRES   REMARKS
LAS VEGAS, NV  MOSUNNY   79  41  25 VRB3      29.90S
ELY            MOSUNNY   55  43  63 VRB3      30.10F
ELKO           MOSUNNY   56  46  69 VRB3      30.06R
POCATELLO, ID  PTSUNNY   59  52  77 NW7       30.02S
BURLEY         CLOUDY    59  47  64 CALM      30.00R
EVANSTON, WY   LGT RAIN  44  42  93 CALM      30.13R
ROCK SPRINGS   MOSUNNY   53  42  66 W10       30.10S
KEMMERER       CLOUDY    50  41  71 CALM      30.12S

$$



USA.gov is the U.S. government's official web portal to all federal, state and local government web resources and services.